Regional Weather Roundup
Issued by NWS Austin/San Antonio, TX

Current Version | Previous Version | Text Only | Print | Product List | Glossary On
Versions: 1 2 3 4 5 6 7 8 9 10 11 12 13 14 15 16 17 18 19 20 21 22 23 24 25 26 27 28 29 30 31 32 33 34 35 36 37 38 39 40 41 42 43 44 45 46 47 48 49 50
000
ASUS44 KEWX 031313
RWREWX
SOUTH TEXAS REGIONAL WEATHER ROUNDUP
NATIONAL WEATHER SERVICE AUSTIN/SAN ANTONIO TX
800 AM CDT MON OCT 03 2022

NOTE: "FAIR" INDICATED FEW OR NO CLOUDS BELOW 12,000 FEET WITH NO
SIGNIFICANT WEATHER AND/OR OBSTRUCTIONS TO VISIBILITY.

* - THESE STATIONS ARE NOT NWS OR FAA STATIONS...AND ARE NOT SUBJECT
    TO NWS AND FAA QUALITY CONTROL.

TXZ171-172-183>190-031400-
TEXAS HILL COUNTRY AND EDWARDS PLATEAU

CITY           SKY/WX    TMP DP  RH WIND       PRES   REMARKS
JUNCTION       CLEAR     50  42  74 NW5       30.21R WCI  48
*LLANO         CLEAR     48  39  71 CALM      30.20R
BURNET         CLEAR     60  41  49 NE3       30.21R
*HORSESHOE BAY CLEAR     49  42  74 S3        30.20R
*LAGO VISTA      N/A     55  37  50 NE3       30.19R
*KERRVILLE     MOCLDY    52  45  76 CALM      30.20R
*FREDERICKSBRG CLEAR     49  43  79 CALM      30.20S
*ROCKSPRINGS   CLEAR     57  48  72 SE3       30.25R
*BOERNE        MOCLDY    54  43  66 CALM      30.18S
HONDO          MOCLDY    59  46  62 N5        30.17R
*UVALDE        MOCLDY    61  51  69 CALM      30.18S
DEL RIO        PTCLDY    60  53  77 CALM      30.15R
*LAUGHLIN AFB  CLOUDY    57  52  83 NE3       30.14R
*SPOFFORD      MOCLDY    62  53  72 NW5       30.15R
CARRIZO SPRGS  MOCLDY    64  55  72 CALM      30.14R
*FAITH RANCH   PTCLDY    68  59  73 E5        30.16R
$$

TXZ173-191>194-202-209-217>225-228-031400-
CENTRAL AND SOUTH CENTRAL TEXAS

CITY           SKY/WX    TMP DP  RH WIND       PRES   REMARKS
GEORGETOWN     PTCLDY    53  42  66 CALM      30.20R
*TAYLOR          N/A    N/A N/A N/A MISG      30.18R
AUSTIN/BERGSTM MOCLDY    55  50  83 CALM      30.16S
AUSTIN/MABRY   PTCLDY    59  47  64 CALM      30.18R
*PFLUGERVILLE  PTCLDY    59  43  55 N6        30.16S
SAN MARCOS     MOCLDY    59  43  55 N5        30.17S
NEW BRAUNFELS  MOCLDY    65  44  46 N7        30.14R
*RANDOLPH AFB  MOCLDY    61  46  57 N5        30.13R
*SEGUIN        CLOUDY    61  44  54 NE5       30.13S
SAN ANTONIO    MOCLDY    63  45  51 NW5       30.16R
STINSON FIELD  MOCLDY    65  47  52 CALM      30.13R
*KELLY FIELD   MOCLDY    62  47  58 CALM      30.13R
*PLEASANTON    MOCLDY    64  54  71 CALM      30.16R
*KENEDY        MOCLDY    59  54  82 CALM      30.15R
*LA GRANGE     NOT AVBL
*GIDDINGS      PTCLDY    57  46  66 CALM      30.17R
*GONZALES      PTCLDY    60  47  61 MISG      30.15R
$$

TXZ163>164-176>182-195>201-210>213-226-227-235-031400-
SOUTHEAST TEXAS

CITY           SKY/WX    TMP DP  RH WIND       PRES   REMARKS
COLLEGE STN    PTCLDY    62  46  55 NE6       30.16R
*BRYAN         PTCLDY    56  46  69 N3        30.19R
*CALDWELL      PTCLDY    55  46  71 N3        30.17R
*CROCKETT      PTCLDY    54  48  82 CALM      30.17R
*BRENHAM       PTCLDY    56  50  79 CALM      30.16
HUNTSVILLE     CLEAR     53  47  79 CALM      30.16R
CONROE         PTCLDY    53  51  93 CALM      30.15R
HOUSTON BUSH   MOCLDY    60  51  72 CALM      30.14R
HOUSTON HOBBY  MOCLDY    65  51  60 VRB3      30.13R
*HOUSTON SW AP NOT AVBL
PEARLAND       PTCLDY    59  53  80 CALM      30.14R
HOUSTON HOOKS  PTCLDY    56  52  86 MISG      30.14R
ELLINGTON FLD  CLEAR     63  52  67 N5        30.12R
SUGAR LAND     PTCLDY    57  52  83 CALM      30.13R
*HOUSTON EXEC  PTCLDY    57  54  88 CALM      30.15S
*CLEVELAND MUN NOT AVBL
*WHARTON       MOCLDY    58  54  85 CALM      30.14R
*COLUMBUS      FAIR      57  50  76 CALM      30.16R
*EAGLE LAKE    PTCLDY    60  51  71 MISG      30.14R
$$

TXZ214>216-236>238-031400-
THE UPPER TEXAS COAST

CITY           SKY/WX    TMP DP  RH WIND       PRES   REMARKS
*ORANGE        PTCLDY    60  54  80 CALM      30.14R
PORT ARTHUR    PTCLDY    60  52  74 N3        30.12R
GALVESTON      PTCLDY    67  61  81 N7        30.12R
ANGLETON       PTCLDY    57  53  86 N6        30.12R
*BAY CITY      MOCLDY    59  53  79 CALM      30.13R
PALACIOS       MOCLDY    60  56  86 N5        30.12R
$$

TXZ229>234-239>247-031400-
TEXAS COASTAL BEND AND RIO GRANDE PLAINS

CITY           SKY/WX    TMP DP  RH WIND       PRES   REMARKS
VICTORIA       MOCLDY    59  54  83 N3        30.12S
*BEEVILLE      MOCLDY    64  56  75 N7        30.12R
ROCKPORT       CLOUDY    71  63  75 N6        30.10S
*PORT ARANSAS  MOCLDY   N/A N/A N/A N7        30.12R
*PORT LAVACA   MOCLDY    64  56  75 N3        30.12R
*INGLESIDE     CLOUDY    67  62  82 NE5       30.10R
CORPUS CHRISTI CLOUDY    70  62  76 NE7       30.10S
CORPUS NAS     CLOUDY    76  63  64 NE10      30.10R
*ROBSTOWN      CLOUDY    66  60  78 MISG      30.12R
ALICE          CLOUDY    64  61  90 N5        30.11R
KINGSVILLE NAS NOT AVBL
COTULLA        MOCLDY    68  56  65 NE5       30.14R
LAREDO         MOCLDY    71  63  75 CALM      30.12R
$$

TXZ248>255-031400-
DEEP SOUTH TEXAS

CITY           SKY/WX    TMP DP  RH WIND       PRES   REMARKS
BROWNSVILLE    PTCLDY    67  64  90 NW5       30.08R
PORT ISABEL    PTCLDY    70  62  76 CALM      30.08R
HARLINGEN      PTCLDY    65  64  97 NW6       30.09R
*HEBBRONVILLE  PTCLDY    66  62  85 CALM      30.13R
MCALLEN        PTCLDY    68  62  81 NW3       30.11R
*WESLACO       PTCLDY    66  62  88 NW5       30.11R
FALFURRIAS     CLOUDY    67  63  85 CALM      30.10S
EDINBURG       PTCLDY    65  62  91 NW3       30.11R
*ZAPATA        PTCLDY    70  67  90 CALM      30.13R
$$

TXZ213>215-236>238-242>244-246-247-251-254-255-031400-
CMAN STATIONS

STATION/POSITION TIME  TEMP    WIND        PRES    WAVE
                       AIR SEA DIR/SP/G            HT/PER
                 (UTC) (F)     (DEG/KT/KT) (MB)    (FT/S)
SEA RIM ST PARK  1300   61     350/  4/  5 1020.1
NORTH JETTY/GLS  1230   70 78   60/ 10/ 12 1018.4
EAGLE POINT      1230   72 74   50/ 10/ 11 1019.2
MORGANS POINT    1230   64 78   20/  5/  7 1019.4
MISSION/ARANSAS  1200   71      30/  8     1020.0
PORT O`CONNOR    1230   74 83  320/  7/  8 1019.4
PORT ARANSAS     1300   74     360/  8/  9   N/A
BAFFIN BAY       1230   72 80  320/  7/  8 1019.4
PORT ISABEL      1230   78 83   70/  4/  5 1017.7
$$



USA.gov is the U.S. government's official web portal to all federal, state and local government web resources and services.